Temp
1 1 0 0 0 0 1 1 0 0 0 0 0 0 1 1 1 1 1 2 2 2 2 2 2 2 2 2 2 2 1 2 2 2 1 1 1 1 2 2 2 3 2 2 3 3 3 3 3 3 3 3
1 0 -0 -0 -0 -0 -0 -0 0 0 0 0 0 0 0 1 1 1 1 1 1 1 2 2 2 2 2 2 2 2 2 2 2 2 2 1 1 1 1 1 2 2 2 1 2 2 2 3 3 3 3 3
0 -0 -0 -1 -1 -1 -1 -1 -1 -1 -1 -0 -0 -0 0 0 1 1 1 1 1 1 1 1 1 2 2 2 2 2 2 1 2 2 2 1 1 1 1 1 1 1 1 1 1 1 2 2 2 2 2 2
0 -0 -1 -1 -1 -1 -1 -1 -1 -1 -1 -1 -1 -1 -0 -0 0 0 1 1 1 1 1 1 1 1 1 2 2 2 2 1 1 1 2 1 1 1 1 1 1 1 1 1 0 1 1 1 1 2 2 2
0 0 -0 -1 -1 -1 -1 -1 -1 -1 -1 -1 -1 -1 -1 -1 -0 -0 0 0 1 1 1 1 1 1 1 1 1 1 1 1 1 1 1 1 1 1 1 1 2 2 1 1 0 0 1 1 1 1 1 1
0 0 -0 -1 -1 -1 -1 -2 -2 -2 -1 -1 -1 -1 -1 -1 -1 -1 -1 -0 -0 0 0 0 0 0 0 1 1 1 1 1 1 1 1 1 1 1 1 1 2 2 2 1 1 1 1 1 1 1 1 1
1 0 -0 -0 -1 -2 -2 -2 -2 -2 -2 -2 -2 -2 -2 -1 -1 -1 -1 -1 -1 -1 -0 -0 -0 0 -0 0 0 1 1 1 1 1 1 1 1 1 1 1 1 1 1 2 1 1 1 1 1 1 1 1
1 0 -0 -1 -1 -1 -2 -2 -2 -2 -2 -2 -2 -2 -2 -2 -1 -1 -1 -1 -1 -1 -1 -1 -1 -0 -1 -1 -0 0 -0 0 0 1 1 1 1 1 1 1 1 1 1 1 1 1 1 1 1 1 1 1
1 0 0 -1 -1 -1 -2 -2 -2 -2 -2 -2 -2 -2 -2 -2 -2 -2 -1 -1 -1 -1 -1 -1 -1 -1 -1 -2 -1 -1 -1 -1 -1 -0 0 0 0 0 1 1 0 0 1 1 1 1 1 1 1 1 1 1
-0 -0 -0 -1 -1 -2 -2 -2 -3 -2 -2 -2 -2 -2 -2 -2 -2 -2 -2 -2 -2 -1 -1 -2 -2 -2 -2 -2 -2 -2 -1 -1 -1 -1 -1 -0 -0 -0 0 -0 -0 0 0 0 1 1 1 1 1 1 1 1
-1 -1 -1 -1 -1 -2 -2 -3 -3 -3 -2 -2 -2 -2 -3 -3 -3 -3 -3 -3 -2 -2 -2 -2 -2 -2 -2 -2 -2 -2 -2 -2 -2 -2 -2 -1 -1 -0 -0 -1 -1 -0 -0 -0 0 0 1 1 1 1 1 1
-1 -1 -1 -1 -1 -2 -2 -3 -3 -3 -3 -3 -3 -3 -3 -3 -3 -3 -3 -3 -3 -3 -2 -2 -2 -2 -2 -2 -3 -3 -2 -2 -2 -2 -2 -2 -2 -1 -1 -1 -1 -1 -1 -1 -1 -0 0 0 0 0 0 0
-1 -1 -1 -1 -2 -2 -2 -3 -3 -4 -4 -4 -3 -3 -3 -3 -3 -3 -3 -3 -3 -3 -3 -2 -2 -3 -3 -3 -3 -3 -3 -3 -3 -2 -2 -2 -2 -2 -2 -2 -2 -1 -1 -1 -1 -1 -1 -0 0 0 0 0
-1 -1 -2 -2 -2 -2 -2 -3 -3 -3 -4 -4 -4 -3 -3 -3 -3 -3 -3 -3 -3 -3 -3 -3 -3 -3 -3 -3 -3 -4 -3 -3 -3 -3 -3 -2 -2 -2 -2 -2 -2 -2 -2 -1 -1 -1 -1 -1 -1 -0 -0 -0
-2 -2 -2 -2 -2 -2 -3 -3 -3 -3 -4 -4 -4 -4 -4 -3 -3 -3 -3 -4 -4 -4 -4 -3 -3 -3 -3 -3 -3 -4 -4 -4 -3 -4 -3 -3 -3 -3 -3 -3 -3 -2 -2 -2 -1 -1 -1 -1 -1 -1 -1 -1
-3 -3 -3 -3 -3 -3 -3 -3 -3 -3 -3 -4 -4 -4 -4 -4 -4 -4 -3 -3 -4 -4 -4 -4 -4 -3 -3 -4 -4 -4 -4 -4 -4 -4 -4 -4 -4 -3 -3 -3 -3 -3 -2 -2 -2 -1 -1 -1 -1 -1 -1 -1
-3 -3 -3 -3 -4 -4 -4 -4 -4 -4 -4 -4 -4 -4 -5 -5 -5 -4 -4 -4 -4 -4 -4 -4 -4 -4 -3 -4 -4 -4 -4 -4 -4 -4 -4 -4 -4 -4 -4 -3 -3 -3 -3 -3 -3 -2 -2 -2 -2 -2 -1 -1
-3 -3 -4 -4 -4 -4 -4 -5 -5 -4 -4 -4 -4 -4 -4 -5 -5 -5 -5 -4 -4 -4 -4 -4 -5 -4 -4 -4 -4 -4 -4 -5 -5 -5 -5 -4 -4 -4 -4 -4 -4 -4 -3 -3 -3 -3 -3 -3 -2 -2 -2 -2
-4 -4 -4 -4 -4 -4 -4 -5 -5 -5 -5 -5 -5 -5 -5 -5 -5 -5 -5 -5 -5 -5 -5 -5 -5 -5 -4 -4 -4 -5 -5 -5 -5 -5 -5 -4 -4 -4 -4 -4 -4 -4 -4 -4 -3 -3 -3 -3 -3 -2 -2 -2
-5 -4 -5 -5 -5 -5 -5 -5 -5 -5 -6 -6 -6 -5 -5 -5 -5 -5 -5 -5 -5 -5 -5 -5 -5 -5 -5 -4 -4 -5 -5 -5 -5 -5 -5 -5 -4 -4 -4 -4 -4 -4 -4 -4 -4 -4 -4 -3 -3 -3 -2 -2
-6 -5 -5 -5 -5 -6 -6 -6 -6 -6 -6 -6 -6 -6 -6 -6 -6 -6 -6 -6 -6 -6 -6 -5 -5 -5 -6 -5 -5 -5 -5 -5 -5 -5 -5 -5 -5 -4 -4 -4 -4 -4 -4 -4 -4 -4 -4 -4 -3 -3 -3 -3
-6 -6 -6 -6 -6 -6 -6 -7 -7 -7 -7 -7 -7 -7 -7 -7 -7 -7 -6 -6 -6 -6 -6 -6 -6 -6 -6 -6 -5 -5 -5 -5 -5 -6 -6 -6 -5 -5 -5 -4 -4 -4 -4 -4 -4 -4 -4 -4 -4 -3 -3 -3
-7 -7 -6 -6 -6 -6 -6 -7 -7 -8 -8 -8 -8 -8 -7 -7 -7 -7 -7 -7 -7 -7 -6 -6 -6 -6 -6 -6 -6 -5 -5 -5 -5 -5 -6 -6 -6 -5 -5 -5 -5 -5 -5 -5 -5 -5 -4 -4 -4 -4 -4 -4
-8 -8 -8 -7 -7 -7 -7 -7 -7 -7 -7 -8 -8 -8 -8 -8 -8 -8 -8 -8 -8 -8 -7 -7 -6 -6 -6 -6 -6 -6 -5 -5 -5 -5 -5 -6 -6 -6 -5 -5 -5 -5 -5 -5 -5 -5 -5 -4 -4 -4 -4 -4
-9 -9 -9 -8 -8 -8 -8 -7 -7 -7 -7 -7 -8 -8 -8 -8 -8 -8 -8 -8 -8 -8 -8 -8 -7 -6 -6 -6 -6 -6 -5 -5 -5 -5 -5 -5 -6 -6 -6 -6 -5 -5 -5 -5 -5 -5 -5 -4 -4 -4 -4 -4
-10 -10 -10 -9 -9 -9 -9 -8 -8 -8 -8 -8 -8 -8 -8 -8 -8 -8 -8 -8 -8 -9 -9 -9 -8 -7 -7 -6 -7 -7 -6 -5 -5 -5 -5 -5 -5 -6 -6 -6 -6 -6 -5 -5 -5 -5 -5 -5 -4 -4 -4 -4
-12 -12 -11 -11 -10 -10 -10 -9 -9 -9 -8 -8 -9 -8 -8 -8 -8 -8 -8 -8 -8 -9 -9 -9 -9 -8 -8 -7 -7 -7 -7 -6 -6 -5 -5 -5 -5 -5 -6 -6 -6 -6 -5 -5 -5 -5 -5 -5 -4 -4 -4 -3
-14 -14 -14 -13 -13 -12 -12 -12 -11 -10 -10 -10 -10 -10 -9 -9 -9 -8 -8 -8 -8 -9 -9 -9 -9 -9 -9 -8 -8 -8 -8 -7 -7 -6 -5 -5 -5 -5 -5 -5 -6 -6 -5 -5 -5 -5 -5 -4 -5 -5 -3 -3
-16 -16 -16 -15 -15 -14 -14 -14 -13 -12 -12 -11 -11 -11 -11 -10 -10 -9 -9 -9 -9 -9 -9 -9 -9 -9 -9 -9 -9 -8 -8 -8 -8 -7 -7 -6 -5 -5 -5 -5 -5 -6 -6 -5 -5 -5 -5 -5 -4 -3 -2 -3
-17 -17 -17 -16 -16 -16 -15 -15 -14 -14 -14 -13 -13 -12 -12 -12 -12 -11 -10 -10 -10 -10 -9 -9 -9 -9 -9 -9 -9 -9 -9 -8 -8 -8 -7 -7 -6 -6 -5 -5 -5 -6 -6 -5 -5 -5 -5 -4 -4 -4 -4 -4
-17 -17 -17 -17 -17 -16 -16 -16 -15 -15 -15 -14 -14 -13 -13 -13 -13 -13 -12 -12 -11 -11 -10 -10 -10 -10 -10 -9 -9 -9 -9 -9 -9 -8 -8 -8 -7 -7 -7 -6 -6 -5 -5 -5 -5 -5 -5 -5 -5 -4 -5 -4
Height
3075 3076 3076 3076 3076 3077 3077 3077 3077 3078 3077 3078 3078 3078 3078 3078 3078 3079 3079 3079 3079 3080 3080 3081 3082 3082 3082 3083 3083 3083 3084 3085 3086 3087 3088 3090 3090 3091 3091 3092 3093 3095 3096 3096 3097 3099 3100 3101 3102 3103 3104 3105
3073 3073 3074 3074 3074 3074 3074 3075 3075 3075 3075 3075 3075 3076 3076 3076 3076 3076 3076 3076 3077 3077 3078 3079 3080 3080 3080 3081 3081 3081 3081 3082 3083 3085 3086 3087 3088 3089 3089 3089 3092 3094 3094 3094 3095 3097 3098 3099 3100 3101 3102 3103
3071 3071 3071 3071 3072 3072 3072 3072 3072 3072 3072 3072 3072 3073 3073 3073 3073 3073 3074 3074 3074 3075 3076 3077 3077 3078 3078 3078 3078 3078 3079 3079 3080 3081 3083 3084 3085 3086 3086 3087 3090 3092 3092 3092 3093 3095 3096 3097 3099 3100 3101 3102
3067 3068 3068 3068 3068 3069 3069 3069 3070 3069 3070 3069 3069 3069 3069 3069 3069 3070 3071 3071 3072 3072 3073 3074 3074 3075 3075 3075 3076 3076 3076 3076 3077 3078 3079 3080 3081 3082 3083 3084 3087 3090 3090 3090 3090 3091 3093 3094 3096 3097 3098 3099
3064 3065 3065 3065 3065 3065 3066 3066 3067 3067 3067 3067 3066 3066 3066 3066 3066 3066 3067 3068 3069 3069 3070 3071 3071 3071 3072 3072 3073 3073 3074 3073 3074 3074 3075 3076 3077 3079 3079 3080 3084 3087 3087 3087 3088 3088 3090 3091 3092 3094 3095 3096
3061 3061 3061 3062 3062 3062 3062 3062 3063 3063 3064 3064 3064 3064 3064 3064 3064 3063 3064 3064 3065 3066 3066 3067 3068 3068 3069 3069 3070 3070 3071 3071 3071 3071 3072 3073 3074 3075 3075 3076 3081 3084 3084 3084 3085 3085 3086 3088 3089 3090 3092 3093
3058 3057 3058 3058 3059 3058 3059 3059 3059 3060 3060 3061 3061 3061 3061 3061 3062 3061 3061 3061 3062 3063 3063 3063 3064 3065 3065 3065 3066 3067 3068 3068 3069 3068 3069 3070 3071 3072 3071 3073 3078 3079 3080 3081 3082 3082 3082 3084 3086 3087 3088 3090
3055 3054 3054 3055 3055 3055 3055 3056 3056 3056 3057 3057 3058 3058 3058 3058 3059 3059 3058 3058 3058 3059 3059 3059 3060 3062 3062 3062 3062 3064 3065 3065 3066 3066 3066 3067 3068 3068 3068 3071 3074 3074 3076 3078 3078 3079 3079 3081 3082 3083 3085 3086
3052 3051 3051 3051 3051 3052 3052 3052 3052 3053 3053 3054 3054 3055 3055 3055 3055 3055 3055 3055 3055 3056 3056 3056 3057 3058 3059 3060 3059 3060 3062 3062 3062 3062 3063 3063 3064 3065 3066 3068 3069 3070 3072 3074 3075 3076 3076 3077 3079 3079 3081 3083
3049 3048 3048 3048 3048 3048 3048 3049 3049 3049 3050 3050 3051 3051 3052 3052 3051 3051 3052 3051 3051 3052 3054 3053 3054 3055 3056 3057 3056 3057 3058 3059 3059 3059 3059 3060 3061 3062 3063 3064 3065 3067 3068 3069 3071 3072 3073 3075 3075 3076 3077 3079
3046 3045 3045 3044 3044 3044 3045 3045 3046 3045 3046 3047 3047 3048 3048 3048 3048 3048 3048 3048 3047 3048 3050 3050 3051 3052 3053 3053 3053 3053 3054 3055 3056 3057 3056 3057 3057 3058 3060 3061 3061 3064 3065 3066 3067 3068 3070 3071 3072 3073 3074 3076
3042 3042 3041 3040 3040 3040 3040 3041 3042 3042 3043 3043 3044 3044 3044 3044 3043 3044 3044 3044 3043 3043 3045 3046 3047 3048 3049 3050 3050 3050 3051 3052 3053 3054 3054 3054 3054 3055 3057 3058 3058 3060 3062 3063 3063 3064 3066 3067 3069 3070 3071 3072
3038 3038 3037 3037 3036 3036 3036 3036 3037 3038 3039 3040 3041 3041 3041 3040 3039 3039 3039 3039 3039 3039 3040 3042 3043 3044 3045 3046 3047 3047 3047 3048 3049 3051 3052 3052 3052 3053 3054 3055 3055 3056 3058 3059 3060 3061 3062 3064 3065 3066 3068 3069
3034 3033 3033 3033 3033 3032 3032 3032 3032 3033 3034 3035 3036 3037 3038 3037 3037 3036 3036 3036 3036 3035 3035 3037 3039 3039 3041 3042 3043 3043 3044 3045 3046 3046 3047 3049 3050 3050 3051 3052 3052 3053 3054 3055 3057 3058 3060 3061 3062 3063 3064 3066
3030 3029 3029 3028 3028 3028 3028 3028 3028 3028 3029 3029 3030 3032 3033 3033 3034 3033 3033 3033 3033 3032 3031 3031 3033 3034 3036 3038 3039 3039 3040 3042 3042 3042 3043 3044 3046 3047 3047 3048 3049 3050 3050 3052 3053 3055 3056 3058 3059 3060 3061 3063
3028 3027 3025 3024 3023 3023 3023 3023 3023 3023 3024 3024 3025 3026 3027 3028 3029 3029 3030 3030 3029 3030 3028 3027 3028 3029 3031 3033 3035 3036 3036 3038 3039 3039 3038 3039 3040 3042 3043 3044 3044 3046 3047 3048 3049 3051 3052 3054 3055 3056 3058 3060
3024 3023 3022 3021 3019 3018 3018 3018 3018 3018 3019 3019 3020 3020 3021 3022 3023 3024 3025 3026 3026 3026 3025 3023 3022 3023 3025 3027 3030 3031 3032 3033 3035 3035 3035 3034 3035 3038 3039 3040 3041 3042 3043 3044 3046 3047 3048 3050 3051 3053 3054 3056
3020 3019 3018 3018 3016 3015 3014 3013 3012 3012 3013 3014 3014 3014 3015 3016 3017 3017 3018 3020 3021 3021 3021 3020 3018 3018 3019 3022 3024 3026 3028 3029 3029 3030 3031 3030 3031 3033 3035 3036 3037 3038 3039 3041 3042 3043 3044 3046 3047 3049 3050 3052
3015 3015 3014 3013 3012 3011 3010 3009 3008 3007 3007 3007 3008 3008 3009 3009 3010 3011 3011 3013 3015 3016 3016 3016 3015 3014 3014 3016 3018 3020 3022 3024 3024 3025 3026 3026 3026 3028 3030 3032 3033 3034 3035 3037 3038 3039 3041 3042 3043 3045 3047 3048
3009 3009 3009 3008 3007 3006 3005 3004 3003 3002 3002 3002 3002 3002 3003 3003 3004 3004 3005 3005 3007 3009 3010 3010 3010 3010 3009 3010 3011 3013 3016 3018 3019 3020 3021 3021 3022 3023 3025 3027 3029 3030 3032 3033 3034 3035 3037 3038 3039 3041 3043 3044
3003 3003 3003 3003 3002 3001 3001 2999 2998 2997 2996 2996 2996 2996 2996 2997 2997 2998 2998 2998 2998 3000 3002 3003 3004 3006 3005 3004 3005 3007 3009 3011 3013 3015 3016 3016 3017 3018 3020 3022 3024 3026 3027 3029 3030 3031 3032 3034 3035 3037 3038 3040
2995 2995 2995 2995 2995 2995 2995 2994 2994 2992 2991 2990 2990 2990 2990 2990 2991 2991 2992 2992 2991 2992 2993 2995 2997 2999 3000 2998 2998 3001 3003 3005 3007 3008 3010 3011 3012 3013 3015 3017 3019 3021 3023 3025 3026 3027 3028 3029 3031 3032 3034 3036
2986 2986 2986 2986 2986 2986 2986 2987 2987 2987 2987 2986 2984 2983 2984 2984 2984 2985 2985 2985 2985 2985 2986 2987 2989 2991 2993 2993 2992 2994 2996 2998 3000 3002 3003 3004 3006 3007 3010 3012 3014 3016 3018 3020 3021 3022 3023 3025 3026 3028 3029 3031
2978 2977 2976 2977 2977 2977 2977 2977 2978 2979 2980 2980 2979 2978 2978 2978 2978 2977 2978 2979 2979 2979 2979 2980 2981 2983 2985 2986 2986 2986 2988 2991 2993 2996 2998 2999 3001 3002 3004 3007 3009 3010 3012 3014 3015 3017 3017 3018 3020 3022 3024 3025
2972 2970 2968 2966 2966 2966 2967 2967 2968 2969 2970 2972 2972 2972 2972 2971 2971 2971 2971 2971 2972 2973 2973 2973 2974 2975 2977 2979 2979 2979 2980 2983 2986 2989 2992 2994 2995 2996 2998 3000 3002 3004 3006 3008 3009 3010 3011 3012 3014 3016 3018 3020
2966 2964 2961 2959 2957 2956 2955 2956 2957 2958 2960 2961 2962 2964 2965 2964 2963 2964 2964 2964 2964 2965 2966 2967 2967 2968 2969 2971 2972 2972 2973 2975 2977 2980 2984 2986 2988 2990 2991 2993 2996 2998 2999 3000 3002 3005 3005 3006 3008 3010 3012 3014
2957 2956 2954 2953 2951 2949 2946 2945 2945 2946 2949 2951 2952 2953 2955 2956 2955 2955 2956 2957 2957 2957 2958 2959 2960 2961 2962 2963 2964 2965 2966 2967 2968 2971 2974 2977 2980 2982 2984 2986 2988 2989 2991 2994 2997 2999 2999 3001 3003 3003 3005 3008
2950 2948 2946 2945 2944 2943 2941 2938 2936 2936 2937 2939 2941 2943 2943 2945 2946 2947 2948 2948 2949 2950 2951 2951 2953 2954 2955 2956 2956 2957 2958 2960 2961 2962 2965 2968 2971 2974 2976 2978 2980 2982 2984 2987 2988 2991 2992 2995 2996 2996 2999 3002
2945 2943 2941 2939 2938 2937 2935 2934 2932 2930 2928 2927 2930 2933 2934 2934 2935 2937 2939 2940 2940 2942 2943 2944 2945 2947 2948 2949 2950 2949 2950 2952 2954 2955 2957 2959 2962 2964 2967 2970 2973 2975 2977 2978 2981 2984 2986 2987 2988 2990 2995 2997
2942 2939 2936 2934 2933 2931 2930 2929 2927 2926 2924 2921 2920 2922 2925 2927 2927 2927 2928 2930 2932 2933 2934 2936 2937 2939 2940 2941 2943 2943 2943 2944 2946 2947 2949 2951 2953 2955 2959 2962 2964 2965 2969 2971 2973 2976 2979 2981 2984 2988 2990 2990
2937 2935 2932 2930 2928 2927 2925 2923 2922 2921 2919 2917 2915 2913 2915 2918 2920 2920 2920 2920 2922 2924 2926 2927 2929 2931 2932 2934 2935 2936 2937 2937 2939 2940 2942 2943 2945 2947 2949 2952 2953 2957 2962 2963 2965 2969 2973 2976 2978 2981 2982 2984
Wind_Speed
21 21 22 23 24 24 25 26 26 25 24 24 24 26 27 27 27 26 26 26 25 24 24 23 23 22 22 22 22 22 23 23 23 22 23 23 25 26 27 28 28 26 27 30 31 31 31 31 30 30 30 30
21 21 22 23 24 24 25 26 26 26 26 26 25 26 27 28 28 28 27 27 26 26 25 24 24 24 24 23 23 24 24 25 25 24 24 24 25 25 26 27 25 23 25 28 29 29 30 30 30 30 30 30
21 22 22 23 24 25 26 26 26 26 25 25 25 26 27 29 30 30 30 29 28 28 27 26 25 25 25 25 25 26 26 26 27 26 26 26 26 26 27 27 24 22 24 26 27 28 28 29 29 29 29 29
23 22 23 24 25 26 27 27 27 26 26 25 25 26 27 28 30 31 31 31 30 29 28 27 26 27 27 27 27 27 28 28 28 28 28 28 29 28 29 28 25 23 24 25 26 28 27 27 27 28 28 29
26 25 25 25 26 27 27 28 28 28 28 27 27 26 27 28 29 30 31 31 31 30 30 29 28 28 28 29 29 29 30 30 30 30 30 30 31 30 31 31 27 24 25 27 27 28 28 27 27 27 27 28
28 28 28 27 27 28 28 28 29 29 29 29 28 28 28 29 30 30 30 30 30 30 30 30 30 29 30 30 31 30 31 31 31 32 32 32 33 32 33 34 29 27 29 29 29 30 29 28 28 28 28 28
30 30 29 29 28 29 29 29 30 31 31 30 30 29 29 30 30 31 31 31 31 31 31 32 31 31 31 31 31 31 31 32 32 33 33 33 34 33 35 34 30 30 32 31 31 31 31 30 30 30 29 29
32 31 31 30 30 31 30 30 31 32 32 32 31 30 31 30 30 31 32 33 32 32 32 33 32 32 31 31 32 31 31 32 32 33 34 34 34 34 35 32 31 33 32 32 33 33 33 32 32 32 31 30
33 33 33 32 32 32 32 31 32 33 33 33 33 32 32 31 31 32 33 34 34 34 33 33 33 32 31 31 32 31 30 31 32 33 34 34 34 34 34 32 32 33 32 32 33 33 34 33 32 33 32 32
35 35 35 35 34 34 34 33 32 34 34 34 34 33 33 34 33 33 34 35 36 36 34 34 34 33 32 31 32 32 31 31 32 33 34 34 34 33 33 32 32 32 31 32 32 33 33 32 32 33 32 32
36 37 37 37 37 36 37 35 33 34 35 35 35 34 34 35 36 35 35 36 37 37 35 35 35 33 32 32 33 33 33 32 32 33 34 34 35 34 32 32 32 31 30 31 31 32 32 32 32 32 32 31
37 39 39 40 40 39 39 39 37 35 34 34 35 36 36 37 38 37 38 38 38 38 37 36 36 33 33 33 33 33 34 33 33 33 34 35 35 35 33 32 32 31 30 30 30 31 31 31 31 31 31 31
38 39 41 42 42 42 42 42 41 40 38 36 35 36 37 38 39 40 40 40 40 40 39 37 36 34 34 34 33 34 35 34 34 34 34 35 36 35 34 33 32 31 31 31 30 30 30 30 30 30 30 30
38 40 41 43 44 45 45 45 44 44 43 41 38 37 37 37 38 40 40 40 41 41 41 40 37 36 35 35 35 35 35 34 34 35 35 36 36 35 35 34 32 32 32 31 30 30 29 29 29 29 29 29
35 38 40 43 44 46 47 48 48 47 46 46 45 43 40 39 39 40 40 39 40 41 42 43 40 38 37 37 36 36 36 34 34 35 37 37 36 35 35 34 34 33 32 31 30 30 29 29 29 29 29 29
32 34 36 39 42 44 47 49 50 50 50 49 49 49 48 45 42 41 41 40 42 42 43 46 45 42 40 39 38 37 37 36 35 36 38 39 38 36 36 35 35 34 33 32 31 30 30 29 29 29 29 28
34 34 34 35 37 39 43 46 49 51 52 52 52 52 52 52 50 47 45 43 44 46 46 47 49 47 43 40 40 39 39 38 37 37 39 41 40 38 37 37 36 35 34 32 31 30 30 29 29 29 29 28
38 38 37 37 36 36 37 40 43 47 50 53 54 54 54 55 55 55 53 50 47 48 49 50 51 51 47 44 42 42 40 40 40 40 41 43 43 41 39 38 38 37 36 34 32 31 30 30 29 29 29 28
40 41 41 40 39 38 37 37 38 40 43 47 51 53 55 56 56 57 58 58 54 50 51 53 52 50 51 49 46 45 43 43 43 43 43 45 46 45 43 41 40 39 37 36 34 32 31 30 30 30 29 28
43 44 44 43 42 40 39 39 38 38 38 40 43 47 51 54 57 57 57 59 59 56 53 54 53 50 51 53 51 49 47 47 46 46 45 47 48 48 47 45 43 41 39 38 36 33 32 31 31 30 29 29
48 49 49 47 45 42 39 38 38 39 39 38 39 41 44 47 51 55 57 58 59 60 58 57 57 53 51 54 56 54 53 52 50 49 48 48 49 50 49 48 46 44 42 40 38 36 35 33 32 32 31 30
56 55 54 53 51 48 44 40 38 38 39 39 39 40 41 42 44 47 51 56 58 60 61 61 62 60 56 58 61 60 58 57 55 53 52 51 51 51 51 50 48 47 45 43 41 39 38 36 35 34 33 33
62 61 59 58 57 55 52 48 44 41 40 40 41 41 42 41 42 42 43 47 52 57 61 62 63 64 62 63 65 65 64 61 60 58 56 55 54 53 52 51 50 49 47 46 45 43 41 40 38 37 36 35
65 64 64 62 61 60 59 57 54 51 47 44 44 44 44 43 43 43 43 42 44 48 54 59 63 64 64 63 63 67 69 66 64 62 60 59 57 56 55 53 52 52 51 49 48 47 46 44 42 40 39 38
68 68 68 67 66 65 64 63 61 59 56 52 50 48 48 48 46 45 46 45 44 44 46 50 57 62 64 63 62 64 69 70 68 66 64 62 61 60 58 56 55 55 54 52 52 51 51 49 46 44 42 41
68 67 67 67 68 67 66 66 64 63 61 58 56 54 53 53 52 49 48 48 47 47 46 46 49 53 59 62 63 62 65 69 71 71 69 67 66 64 62 60 59 58 57 57 56 55 54 52 49 47 46 43
58 57 57 58 59 60 62 64 64 64 63 60 58 58 57 55 55 54 52 50 49 49 49 48 48 48 50 54 58 60 62 65 69 72 72 71 69 68 67 65 63 62 61 60 58 57 57 55 52 52 49 46
44 43 44 45 46 48 50 54 57 59 60 59 56 54 55 56 56 56 55 54 52 51 50 50 50 50 49 49 50 53 58 62 65 69 71 73 73 72 71 69 68 67 65 64 62 61 60 58 56 55 51 47
34 35 38 39 40 40 41 43 46 50 53 54 52 47 46 50 54 55 55 55 54 53 52 52 52 51 51 49 48 47 51 56 61 65 68 71 74 75 74 73 72 71 69 68 66 65 63 61 60 55 50 49
30 32 35 37 38 37 37 39 40 43 45 47 48 45 40 40 45 49 52 53 53 52 52 52 53 53 52 50 48 46 45 48 53 59 65 69 71 74 76 76 76 75 73 71 69 67 66 64 60 56 53 54
30 32 35 36 36 36 37 38 39 40 41 42 44 45 42 37 36 40 45 49 50 51 52 52 52 54 54 52 49 46 44 44 45 49 57 64 68 69 71 74 78 78 76 75 73 70 68 66 63 61 60 57
Wind_Direction
260 259 260 261 263 264 263 263 262 262 263 264 264 264 262 260 259 257 255 252 250 248 247 246 244 242 241 242 243 244 244 244 242 238 235 231 231 234 233 231 229 228 227 227 228 227 228 228 230 232 232 232
258 257 257 258 261 261 261 260 260 261 262 264 265 267 266 264 261 258 256 253 251 250 248 248 249 248 247 246 246 248 248 248 248 244 241 238 235 236 237 236 232 229 230 231 231 229 229 228 229 231 232 232
254 254 256 257 259 259 259 258 258 259 260 261 263 265 266 266 264 262 259 256 253 251 250 249 250 251 252 251 251 252 252 252 252 250 247 245 243 240 240 240 235 229 231 236 237 235 234 234 233 233 234 235
251 249 251 254 256 257 258 257 256 257 258 258 259 261 263 263 263 262 261 259 257 255 252 251 252 253 253 254 254 255 257 256 256 255 252 250 248 246 246 244 238 232 231 235 239 240 239 239 239 237 238 238
250 247 246 248 251 253 255 256 256 256 257 257 258 259 260 261 260 260 259 258 258 257 256 254 253 255 255 255 256 257 258 259 259 258 256 254 252 250 249 248 242 237 236 235 238 241 241 241 242 241 242 242
250 249 246 244 246 249 251 253 254 254 255 256 256 257 259 261 261 260 259 257 256 256 257 256 254 256 257 257 257 259 259 259 260 259 257 255 254 252 251 250 246 241 240 239 240 244 244 242 243 243 243 245
253 251 249 245 243 245 247 249 250 251 252 253 254 254 256 259 261 261 259 258 257 255 255 255 255 256 259 260 259 259 261 261 260 259 258 256 255 253 252 252 250 245 242 241 241 244 246 245 245 245 245 245
256 253 251 247 244 244 244 246 248 248 249 251 251 252 254 256 259 260 259 258 257 256 256 257 257 257 260 263 262 261 262 262 261 260 259 258 257 255 255 254 252 248 244 242 242 243 245 246 245 245 245 245
261 257 253 249 246 246 245 245 246 246 247 248 249 249 251 254 255 257 258 258 257 255 256 258 259 260 262 265 266 264 263 264 263 261 259 259 258 256 256 255 252 250 248 245 243 243 245 245 246 246 245 245
261 258 254 250 245 244 245 246 247 246 245 246 247 246 248 251 252 253 256 257 258 256 255 258 259 261 264 265 266 266 265 264 263 262 261 259 257 256 255 254 252 251 250 248 246 245 245 245 246 247 247 246
258 256 253 250 246 242 242 244 247 248 246 245 245 244 245 249 250 251 253 255 257 257 256 257 258 260 262 263 265 266 266 264 263 263 262 260 258 256 254 253 252 250 249 248 247 246 245 244 245 246 247 247
257 256 254 251 248 244 241 240 243 247 248 247 247 245 243 245 248 249 251 252 254 256 255 255 257 257 259 260 261 264 265 265 265 264 262 261 259 257 254 253 252 250 247 246 246 246 245 243 244 245 246 247
256 255 254 253 250 247 244 241 240 242 245 246 247 248 246 245 246 247 249 250 251 254 254 252 253 254 254 256 258 259 261 264 266 265 263 261 260 258 255 252 252 251 248 245 244 244 244 244 243 244 244 245
258 255 254 253 252 250 247 244 242 240 241 242 242 244 247 247 247 247 248 248 250 253 255 252 249 249 251 252 254 256 258 260 263 265 264 261 260 259 256 252 250 249 249 247 245 244 243 243 243 243 243 244
265 259 255 253 252 251 250 248 246 242 240 241 241 241 242 244 245 247 246 247 248 250 253 252 246 245 247 248 250 252 254 256 258 262 264 264 262 259 257 254 250 247 246 246 246 245 243 243 243 244 243 243
274 268 262 257 254 252 251 250 249 247 244 242 242 242 241 241 241 243 243 245 247 246 249 251 249 246 244 245 247 248 250 251 254 257 260 263 262 260 258 255 251 247 244 243 243 244 243 242 242 243 244 244
283 278 272 266 261 257 254 252 251 250 248 246 244 243 243 243 242 242 240 240 242 244 247 251 252 249 243 243 245 246 247 248 248 251 254 258 260 260 259 257 254 251 246 243 241 242 242 242 241 242 243 243
290 286 281 275 270 265 261 258 255 253 252 250 248 246 245 245 244 244 243 240 240 241 243 247 251 251 246 242 243 244 245 246 246 247 250 253 257 258 259 258 257 254 250 246 243 242 242 241 241 242 242 243
293 291 288 283 277 273 268 265 261 259 257 255 252 250 248 247 246 246 246 245 243 242 241 242 245 250 248 242 241 243 243 245 246 245 246 250 253 255 256 257 256 255 253 249 246 243 242 242 242 243 243 243
292 291 288 285 281 277 274 271 268 265 262 260 258 256 253 251 249 247 247 247 246 245 244 242 242 245 249 246 242 243 242 243 244 244 245 247 250 252 254 254 255 255 253 251 248 245 243 243 243 244 244 244
292 290 288 285 281 278 275 274 274 272 268 265 264 262 259 256 254 251 249 248 247 245 244 245 245 244 248 249 246 244 243 242 242 243 244 245 247 249 251 252 253 253 252 250 248 245 244 242 243 244 244 246
292 289 287 284 281 278 275 272 273 274 274 273 271 267 263 261 260 258 255 252 250 247 246 246 246 245 246 249 250 247 245 242 241 241 242 243 244 245 247 249 251 252 251 251 249 246 244 242 241 242 243 245
293 289 286 284 282 280 277 274 271 271 272 275 276 274 269 266 264 263 261 259 256 253 250 248 246 246 245 247 250 250 247 244 242 241 240 241 242 243 244 245 247 249 249 249 248 246 244 242 240 240 241 243
295 293 290 287 284 281 279 277 275 272 270 270 273 275 274 272 270 267 264 264 263 260 256 252 248 246 245 245 247 249 248 245 243 242 241 241 241 242 242 242 243 244 245 246 246 246 244 242 240 239 240 241
297 295 293 291 288 285 282 279 278 276 274 272 270 271 274 274 272 271 268 266 265 264 262 258 253 250 248 246 245 246 248 247 245 244 243 243 242 242 242 241 241 242 243 243 243 244 243 243 241 240 240 241
298 296 294 292 291 289 286 283 280 279 277 276 274 271 272 273 272 271 270 269 267 266 265 263 259 255 251 249 247 246 246 246 246 245 243 242 242 242 241 241 240 240 241 242 243 244 244 244 243 242 242 242
301 299 296 293 291 291 290 288 285 282 280 279 279 276 273 272 272 270 269 268 268 268 268 267 265 261 256 252 250 248 246 244 244 244 243 242 241 241 241 241 240 240 239 240 242 243 244 245 245 245 243 242
301 299 297 296 294 293 292 291 289 287 284 282 281 279 277 273 271 269 269 267 266 266 267 268 268 266 262 257 254 251 249 246 244 243 242 241 241 240 240 240 240 240 239 239 239 240 242 243 244 244 243 243
295 294 296 297 297 296 294 293 291 290 289 288 285 282 278 275 272 269 267 266 265 265 264 265 267 267 266 262 259 256 253 250 247 245 242 241 241 240 240 239 240 241 240 239 239 239 240 241 243 244 244 246
289 290 292 295 296 297 297 295 295 294 293 292 290 288 283 277 274 271 268 265 263 262 262 261 263 264 266 264 262 260 257 254 251 249 246 243 241 240 240 240 241 241 240 240 240 240 240 242 244 245 247 248
284 286 288 292 296 296 297 297 297 296 295 293 293 293 291 283 275 270 267 265 262 259 257 257 258 260 262 263 262 261 259 257 255 253 251 247 244 241 241 241 241 240 240 240 240 240 240 241 243 244 246 247